Niagara Falls, NY

9:11 AM EDT on July 26, 2017 (GMT -0400)
Niagara Falls International

Weather History for KIAG - January, 2010

Change the Weather History Date:

Sunday, January 31, 2010

  Actual Average Record
Temperature  
Mean Temperature 12 °F -  
Max Temperature 24 °F 29 °F 55 °F (2016)
Min Temperature 1 °F 16 °F 0 °F (2011)
Degree Days  
Heating Degree Days 52    
Moisture  
Dew Point 12 °F    
Average Humidity 75    
Maximum Humidity 83    
Minimum Humidity 67    
Precipitation  
Precipitation 0.00 in - - ()
Snow  
Snow 0.00 in - - ()
Snow Depth 2.00 in    
Sea Level Pressure  
Sea Level Pressure 30.10 in    
Wind  
Wind Speed 12 mph (SW)    
Max Wind Speed 28 mph    
Max Gust Speed 37 mph    
Visibility 8 miles    
Events Snow    
Averages and records for this station are not official NWS values.
T = Trace of Precipitation, MM = Missing Value Source: NWS Daily Summary

Daily Weather History Graph

Daily Weather History Graph

Search for Another Location

Airport or City:

Trip Planner

Search our weather history database for the weather conditions in past years. The results will help you decide how hot, cold, wet, or windy it might be!

Date:

Astronomy

Jan. 31, 2010 Rise Set
Actual Time 7:32 AM EST 5:26 PM EST
Civil Twilight 7:01 AM EST 5:57 PM EST
Nautical Twilight 6:27 AM EST 6:31 PM EST
Astronomical Twilight 5:54 AM EST 7:04 PM EST
Moon 7:42 PM EST (1/31) 8:07 AM EST (1/31)
Length of Visible Light 10h 55m
Length of Day
9h 54m
Full, 97% of the Moon is Illuminated
Jan 31
Full
Feb 5
Last Quarter
Feb 13
New
Feb 21
First Quarter
Feb 28
Full

Hourly Weather History & Observations

Time (EST) Temp. Windchill Dew Point Humidity Pressure Visibility Wind Dir Wind Speed Gust Speed Precip Events Conditions
12:04 AM 1.4 °F - -4.0 °F 78% 30.12 in 9.0 mi Calm Calm - N/A   Mostly Cloudy
12:53 AM 1.9 °F - -2.0 °F 83% 30.19 in 7.0 mi Calm Calm - N/A   Overcast
1:31 AM 5.0 °F -4.1 °F -0.4 °F 78% 30.11 in 10.0 mi South 4.6 mph - N/A   Partly Cloudy
1:53 AM 6.1 °F -2.8 °F 1.0 °F 80% 30.19 in 10.0 mi South 4.6 mph - N/A   Clear
2:53 AM 6.1 °F -2.8 °F 1.0 °F 80% 30.18 in 10.0 mi SSW 4.6 mph - N/A   Clear
3:53 AM 7.0 °F -1.7 °F 1.0 °F 77% 30.17 in 10.0 mi SW 4.6 mph - N/A   Clear
4:53 AM 10.0 °F -3.7 °F 1.0 °F 67% 30.16 in 10.0 mi SW 10.4 mph - N/A   Scattered Clouds
5:53 AM 12.0 °F -2.7 °F 3.0 °F 67% 30.16 in 10.0 mi SW 12.7 mph - N/A   Overcast
6:53 AM 12.9 °F -2.2 °F 5.0 °F 71% 30.17 in 10.0 mi WSW 13.8 mph - N/A   Mostly Cloudy
7:00 AM 12.2 °F -1.8 °F 6.8 °F 79% 30.09 in 10.0 mi WSW 11.5 mph - N/A   Mostly Cloudy
7:53 AM 16.0 °F 1.1 °F 7.0 °F 68% 30.18 in 10.0 mi WSW 15.0 mph - N/A   Mostly Cloudy
8:53 AM 17.1 °F 1.0 °F 8.1 °F 68% 30.20 in 10.0 mi WSW 18.4 mph - N/A   Mostly Cloudy
9:53 AM 18.0 °F 3.1 °F 9.0 °F 68% 30.18 in 10.0 mi WSW 16.1 mph 25.3 mph N/A   Mostly Cloudy
10:23 AM 19.4 °F 2.8 °F 10.4 °F 68% 30.10 in 10.0 mi SW 21.9 mph 25.3 mph 0.00 in Snow Light Snow
10:53 AM 19.9 °F 6.2 °F 12.0 °F 71% 30.17 in 10.0 mi SW 15.0 mph - 0.00 in Snow Light Snow
11:53 AM 21.9 °F 6.9 °F 12.9 °F 68% 30.16 in 10.0 mi WSW 19.6 mph - 0.00 in Snow Light Snow
12:53 PM 23.0 °F 7.6 °F 14.0 °F 68% 30.12 in 10.0 mi SW 21.9 mph 26.5 mph 0.00 in Snow Light Snow
1:23 PM 21.2 °F 6.4 °F 14.0 °F 74% 30.03 in 5.0 mi SW 18.4 mph - 0.00 in Snow Light Snow
1:35 PM 21.2 °F 5.6 °F 15.8 °F 80% 30.03 in 2.0 mi SW 20.7 mph 28.8 mph 0.00 in Snow Light Snow
1:51 PM 21.2 °F 4.9 °F 15.8 °F 80% 30.03 in 1.5 mi WSW 23.0 mph 29.9 mph 0.00 in Snow Light Snow
1:53 PM 21.9 °F 5.5 °F 16.0 °F 78% 30.10 in 1.5 mi WSW 24.2 mph 29.9 mph 0.00 in Snow Light Snow
2:21 PM 21.2 °F 4.5 °F 15.8 °F 80% 30.03 in 2.0 mi SW 24.2 mph 33.4 mph 0.00 in Snow Light Snow
2:29 PM 21.2 °F 5.2 °F 15.8 °F 80% 30.03 in 4.0 mi WSW 21.9 mph 32.2 mph 0.00 in Snow Light Snow
2:53 PM 21.9 °F 4.5 °F 15.1 °F 75% 30.10 in 3.0 mi WSW 27.6 mph 36.8 mph 0.00 in Snow Light Snow
3:06 PM 21.2 °F 6.0 °F 15.8 °F 80% 30.02 in 6.0 mi SW 19.6 mph 33.4 mph 0.00 in Snow Light Snow
3:30 PM 21.2 °F 5.6 °F 15.8 °F 80% 30.02 in 4.0 mi SW 20.7 mph 32.2 mph N/A Snow Light Snow
3:53 PM 21.9 °F 6.5 °F 15.1 °F 75% 30.09 in 6.0 mi WSW 20.7 mph 29.9 mph 0.00 in Snow Light Snow
4:22 PM 21.2 °F 6.4 °F 15.8 °F 80% 30.01 in 7.0 mi WSW 18.4 mph 31.1 mph 0.00 in   Overcast
4:53 PM 23.0 °F 8.7 °F 16.0 °F 74% 30.09 in 8.0 mi WSW 18.4 mph 32.2 mph 0.00 in   Overcast
5:24 PM 23.0 °F 7.2 °F 15.8 °F 74% 30.02 in 7.0 mi WSW 23.0 mph 28.8 mph 0.00 in Snow Light Snow
5:53 PM 23.0 °F 8.3 °F 17.1 °F 78% 30.09 in 6.0 mi WSW 19.6 mph 27.6 mph 0.00 in Snow Light Snow
6:01 PM 23.0 °F 8.7 °F 17.6 °F 80% 30.03 in 8.0 mi WSW 18.4 mph 26.5 mph 0.00 in Snow Light Snow
6:22 PM 23.0 °F 8.3 °F 17.6 °F 80% 30.03 in 9.0 mi WSW 19.6 mph 26.5 mph 0.00 in   Overcast
6:53 PM 24.1 °F 9.8 °F 17.1 °F 75% 30.09 in 10.0 mi WSW 19.6 mph 26.5 mph 0.00 in   Overcast
7:53 PM 24.1 °F 9.8 °F 17.1 °F 75% 30.10 in 9.0 mi WSW 19.6 mph - N/A   Overcast
8:53 PM 24.1 °F 9.8 °F 17.1 °F 75% 30.11 in 10.0 mi WSW 19.6 mph 28.8 mph N/A   Overcast
9:10 PM 24.8 °F 9.3 °F 17.6 °F 74% 30.05 in 9.0 mi WSW 24.2 mph 27.6 mph 0.00 in Snow Light Snow
9:36 PM 23.0 °F 7.2 °F 17.6 °F 80% 30.06 in 8.0 mi WSW 23.0 mph 29.9 mph 0.00 in Snow Light Snow
9:53 PM 23.0 °F 8.3 °F 17.1 °F 78% 30.12 in 8.0 mi West 19.6 mph 28.8 mph 0.00 in Snow Light Snow
10:15 PM 23.0 °F 9.2 °F 15.8 °F 74% 30.07 in 9.0 mi WSW 17.3 mph - 0.00 in   Overcast
10:53 PM 21.9 °F 7.8 °F 15.1 °F 75% 30.13 in 10.0 mi WSW 17.3 mph 25.3 mph 0.00 in   Scattered Clouds
11:53 PM 21.9 °F 8.7 °F 15.1 °F 75% 30.15 in 10.0 mi West 15.0 mph - N/A   Clear